Location: ??????????
(54.8537°N, 38.8755°E)
Time: 00:01:14
(UTC+00:00)

Tiros 1 despin weight - Pass Details

Date: 13 September 2024
Orbit: 572 x 614 km, 48.2° (Epoch: 12 October)

Event Time Altitude Azimuth Distance (km) Brightness Sun altitude
Rises 03:36:09 0° 247° (WSW) 2,883 ? 5.2°
Reaches altitude 10° 03:38:36 10° 239° (WSW) 1,980 ? 5.6°
Maximum altitude 03:42:44 35° 174° (S) 1,006 ? 6.2°
Drops below altitude 10° 03:46:51 10° 109° (ESE) 1,977 ? 6.8°
Sets 03:49:18 0° 100° (E) 2,879 ? 7.1°
